• In Belarus
  • List of Countries
  • For 7 days
  • Water Temperature
  • Satellite Maps
  • Weather Map
  • Weather Widgets
  • user-avatar
    Login

    Hourly Weather Averkovo

    Today, 24 September, Monday

    Time Temperature Precipitation Wind Pressure Humidity
    00:00 +7°C° 0 mm 3 mps 736 mmHg 88%
    01:00 +7°C° 0 mm 2 mps 736 mmHg 90%
    02:00 +6°C° 0 mm 2 mps 736 mmHg 96%
    03:00 +6°C° 0 mm 2 mps 736 mmHg 95%
    04:00 +6°C° 0 mm 2 mps 735 mmHg 94%
    05:00 +7°C° 0 mm 3 mps 735 mmHg 93%
    06:00 +7°C° 0.4 mm 3 mps 735 mmHg 91%
    07:00 +8°C° 0.4 mm 3 mps 735 mmHg 90%
    08:00 +7°C° 0 mm 4 mps 734 mmHg 89%
    09:00 +7°C° 0.8 mm 4 mps 734 mmHg 88%
    10:00 +7°C° 0.8 mm 5 mps 733 mmHg 87%
    11:00 +8°C° 0.8 mm 6 mps 732 mmHg 86%
    12:00 +7°C° 1.9 mm 6 mps 731 mmHg 88%
    13:00 +7°C° 1.9 mm 6 mps 730 mmHg 89%
    14:00 +6°C° 1.9 mm 7 mps 728 mmHg 91%
    15:00 +7°C° 1.7 mm 6 mps 727 mmHg 91%
    16:00 +8°C° 1.7 mm 6 mps 726 mmHg 92%
    17:00 +8°C° 1.7 mm 6 mps 725 mmHg 92%
    18:00 +8°C° 0.4 mm 6 mps 724 mmHg 91%
    19:00 +8°C° 0.4 mm 6 mps 724 mmHg 91%
    20:00 +8°C° 0.4 mm 6 mps 724 mmHg 90%
    21:00 +6°C° 0.2 mm 7 mps 724 mmHg 90%
    22:00 +6°C° 0.2 mm 7 mps 724 mmHg 90%
    23:00 +5°C° 0.2 mm 7 mps 725 mmHg 89%

    Tomorrow, 25 September, Tuesday

    Time Temperature Precipitation Wind Pressure Humidity
    00:00 +5°C° 0.3 mm 7 mps 725 mmHg 89%
    01:00 +5°C° 0.3 mm 7 mps 726 mmHg 88%
    02:00 +5°C° 0.3 mm 7 mps 727 mmHg 88%
    03:00 +5°C° 0.3 mm 7 mps 727 mmHg 88%
    04:00 +5°C° 0.3 mm 7 mps 728 mmHg 87%
    05:00 +5°C° 0.3 mm 7 mps 729 mmHg 87%
    06:00 +5°C° 0.2 mm 7 mps 730 mmHg 87%
    07:00 +5°C° 0.2 mm 7 mps 730 mmHg 86%
    08:00 +4°C° 0.2 mm 7 mps 731 mmHg 86%
    09:00 +5°C° 0.1 mm 7 mps 732 mmHg 84%
    10:00 +5°C° 0.1 mm 7 mps 733 mmHg 82%
    11:00 +5°C° 0.1 mm 7 mps 734 mmHg 80%
    12:00 +5°C° 0.1 mm 7 mps 735 mmHg 79%
    13:00 +7°C° 0.1 mm 6 mps 736 mmHg 77%
    14:00 +7°C° 0.1 mm 6 mps 736 mmHg 75%
    15:00 +7°C° 0 mm 5 mps 737 mmHg 74%
    16:00 +6°C° 0 mm 5 mps 738 mmHg 74%
    17:00 +6°C° 0 mm 4 mps 738 mmHg 74%
    18:00 +6°C° 0 mm 4 mps 739 mmHg 75%
    19:00 +5°C° 0 mm 4 mps 740 mmHg 76%
    20:00 +5°C° 0 mm 4 mps 740 mmHg 77%
    21:00 +4°C° 0 mm 4 mps 741 mmHg 77%
    22:00 +4°C° 0 mm 4 mps 742 mmHg 78%
    23:00 +4°C° 0 mm 4 mps 742 mmHg 78%

    Day after tomorrow, 26 September, Wednesday

    Time Temperature Precipitation Wind Pressure Humidity
    00:00 +3°C° 0 mm 4 mps 743 mmHg 79%
    01:00 +1°C° 0 mm 4 mps 743 mmHg 79%
    02:00 +1°C° 0 mm 4 mps 744 mmHg 80%
    03:00 0°C° 0 mm 4 mps 744 mmHg 80%
    04:00 0°C° 0 mm 4 mps 745 mmHg 80%
    05:00 0°C° 0 mm 3 mps 746 mmHg 80%
    06:00 +1°C° 0 mm 3 mps 746 mmHg 77%
    07:00 +2°C° 0 mm 3 mps 747 mmHg 74%
    08:00 +3°C° 0 mm 3 mps 747 mmHg 70%
    09:00 +4°C° 0 mm 4 mps 747 mmHg 66%
    10:00 +6°C° 0 mm 4 mps 747 mmHg 62%
    11:00 +8°C° 0 mm 4 mps 747 mmHg 57%
    12:00 +8°C° 0 mm 4 mps 747 mmHg 57%
    13:00 +10°C° 0 mm 4 mps 746 mmHg 57%
    14:00 +11°C° 0 mm 4 mps 746 mmHg 57%
    15:00 +10°C° 0 mm 4 mps 745 mmHg 61%
    16:00 +8°C° 0 mm 4 mps 745 mmHg 64%
    17:00 +7°C° 0 mm 4 mps 744 mmHg 68%
    18:00 +7°C° 0 mm 5 mps 744 mmHg 68%
    19:00 +7°C° 0 mm 5 mps 743 mmHg 69%
    20:00 +7°C° 0 mm 6 mps 742 mmHg 69%
    21:00 +5°C° 0.5 mm 7 mps 741 mmHg 74%
    22:00 +5°C° 0.5 mm 7 mps 740 mmHg 80%
    23:00 +4°C° 0.5 mm 7 mps 739 mmHg 85%

    27 September, Thursday

    Time Temperature Precipitation Wind Pressure Humidity
    00:00 +4°C° 1.5 mm 8 mps 738 mmHg 86%
    01:00 +4°C° 1.5 mm 8 mps 737 mmHg 88%
    02:00 +4°C° 1.5 mm 8 mps 737 mmHg 90%
    03:00 +5°C° 0.9 mm 7 mps 736 mmHg 90%
    04:00 +5°C° 0.9 mm 7 mps 736 mmHg 91%
    05:00 +5°C° 0.9 mm 6 mps 735 mmHg 92%
    06:00 +5°C° 0.6 mm 6 mps 735 mmHg 92%
    07:00 +7°C° 0.6 mm 6 mps 735 mmHg 92%
    08:00 +7°C° 0.6 mm 5 mps 735 mmHg 92%
    09:00 +7°C° 0.2 mm 5 mps 735 mmHg 90%
    10:00 +8°C° 0.2 mm 5 mps 735 mmHg 89%
    11:00 +8°C° 0.2 mm 5 mps 735 mmHg 87%
    12:00 +8°C° 0.1 mm 5 mps 735 mmHg 87%
    13:00 +8°C° 0.1 mm 4 mps 735 mmHg 87%
    14:00 +8°C° 0.1 mm 4 mps 735 mmHg 86%
    15:00 +8°C° 0.4 mm 4 mps 735 mmHg 87%
    16:00 +7°C° 0.4 mm 4 mps 735 mmHg 87%
    17:00 +8°C° 0.4 mm 3 mps 735 mmHg 88%
    18:00 +7°C° 0 mm 3 mps 735 mmHg 88%
    19:00 +7°C° 0 mm 3 mps 736 mmHg 89%
    20:00 +5°C° 0 mm 3 mps 736 mmHg 89%
    21:00 +5°C° 0 mm 3 mps 736 mmHg 90%
    22:00 +7°C° 0 mm 3 mps 736 mmHg 91%
    23:00 +7°C° 0 mm 3 mps 736 mmHg 91%

    28 September, Friday

    Time Temperature Precipitation Wind Pressure Humidity
    00:00 +7°C° 0 mm 3 mps 736 mmHg 91%
    01:00 +7°C° 0 mm 3 mps 735 mmHg 91%
    02:00 +7°C° 0 mm 3 mps 735 mmHg 91%
    03:00 +7°C° 0.1 mm 3 mps 735 mmHg 92%
    04:00 +8°C° 0.1 mm 3 mps 734 mmHg 93%
    05:00 +7°C° 0.1 mm 4 mps 733 mmHg 94%
    06:00 +8°C° 1.5 mm 4 mps 733 mmHg 93%
    07:00 +9°C° 1.5 mm 5 mps 732 mmHg 92%
    08:00 +10°C° 1.5 mm 6 mps 732 mmHg 92%
    09:00 +9°C° 1 mm 5 mps 732 mmHg 91%
    10:00 +8°C° 1 mm 5 mps 732 mmHg 91%
    11:00 +8°C° 1 mm 4 mps 732 mmHg 91%
    12:00 +8°C° 0.2 mm 4 mps 733 mmHg 87%
    13:00 +8°C° 0.2 mm 4 mps 734 mmHg 84%
    14:00 +10°C° 0.2 mm 3 mps 734 mmHg 81%
    15:00 +9°C° 0 mm 3 mps 735 mmHg 82%
    16:00 +9°C° 0 mm 2 mps 735 mmHg 84%
    17:00 +8°C° 0 mm 2 mps 736 mmHg 85%
    18:00 +7°C° 0 mm 2 mps 736 mmHg 87%
    19:00 +7°C° 0 mm 1 mps 737 mmHg 90%
    20:00 +6°C° 0 mm 1 mps 738 mmHg 92%
    21:00 +6°C° 0 mm 1 mps 738 mmHg 92%
    22:00 +5°C° 0 mm 1 mps 738 mmHg 92%
    23:00 +4°C° 0 mm 0 mps 738 mmHg 92%

    29 September, Saturday

    Time Temperature Precipitation Wind Pressure Humidity
    00:00 +5°C° 0 mm 1 mps 738 mmHg 92%
    01:00 +4°C° 0 mm 1 mps 739 mmHg 92%
    02:00 +4°C° 0 mm 1 mps 739 mmHg 92%
    03:00 +4°C° 0 mm 1 mps 739 mmHg 93%
    04:00 +4°C° 0 mm 1 mps 739 mmHg 93%
    05:00 +3°C° 0 mm 2 mps 739 mmHg 93%
    06:00 +4°C° 0.3 mm 2 mps 739 mmHg 93%
    07:00 +5°C° 0.3 mm 2 mps 740 mmHg 92%
    08:00 +6°C° 0.3 mm 2 mps 740 mmHg 91%
    09:00 +6°C° 0.4 mm 2 mps 740 mmHg 90%
    10:00 +5°C° 0.4 mm 3 mps 741 mmHg 89%
    11:00 +5°C° 0.4 mm 3 mps 741 mmHg 88%
    12:00 +5°C° 0.1 mm 4 mps 741 mmHg 86%
    13:00 +5°C° 0.1 mm 4 mps 742 mmHg 83%
    14:00 +5°C° 0.1 mm 4 mps 742 mmHg 81%
    15:00 +4°C° 0 mm 4 mps 742 mmHg 82%
    16:00 +4°C° 0 mm 3 mps 743 mmHg 82%
    17:00 +4°C° 0 mm 2 mps 743 mmHg 83%
    18:00 +3°C° 0 mm 2 mps 744 mmHg 86%
    19:00 +2°C° 0 mm 2 mps 744 mmHg 89%
    20:00 +3°C° 0 mm 1 mps 745 mmHg 91%
    21:00 +2°C° 0 mm 1 mps 745 mmHg 92%
    22:00 +2°C° 0 mm 1 mps 746 mmHg 92%
    23:00 +2°C° 0 mm 1 mps 746 mmHg 93%
    Show more